Weather History for Key West NAF, FL

Change the Weather History Date:

Saturday, February 8, 2014

  Actual Average Record
Temperature  
Mean Temperature 77 °F -  
Max Temperature 82 °F 74 °F 84 °F (1949)
Min Temperature 72 °F 64 °F 37 °F (1998)
Cooling Degree Days 12    
Growing Degree Days 27 (Base 50)    
Moisture  
Dew Point 71 °F    
Average Humidity 83    
Maximum Humidity 97    
Minimum Humidity 69    
Precipitation  
Precipitation 0.00 in - - ()
Sea Level Pressure  
Sea Level Pressure 30.06 in    
Wind  
Wind Speed 6 mph (ENE)    
Max Wind Speed 14 mph    
Max Gust Speed -    
Visibility 9 miles    
Events      
Averages and records for this station are not official NWS values.
T = Trace of Precipitation, MM = Missing Value Source: NWS Daily Summary

Daily Weather History Graph

Daily Weather History Graph

Search for Another Location

Airport:

Trip Planner

Search our weather history database for the weather conditions in past years. The results will help you decide how hot, cold, wet, or windy it might be!

Date:

Astronomy

Feb. 08, 2014 Rise Set
Actual Time 7:05 AM EST 6:17 PM EST
Civil Twilight 6:41 AM EST 6:40 PM EST
Nautical Twilight 6:14 AM EST 7:07 PM EST
Astronomical Twilight 5:47 AM EST 7:34 PM EST
Moon 1:19 PM EST (2/8) 2:08 AM EST (2/8)
Length of Visible Light 11h 58m
Length of Day
11h 11m
Waxing Gibbous, 68% of the Moon is Illuminated
Feb 8
Waxing Gibbous
Feb 14
Full
Feb 22
Last Quarter
Mar 1
New
Mar 8
First Quarter

Hourly Weather History & Observations

Time (EST) Temp. Heat Index Dew Point Humidity Pressure Visibility Wind Dir Wind Speed Gust Speed Precip Events Conditions
12:53 AM 73.0 °F - 69.1 °F 87% 30.09 in 10.0 mi East 4.6 mph - N/A   Clear
1:53 AM 75.0 °F - 70.0 °F 84% 30.07 in 10.0 mi East 9.2 mph - N/A   Scattered Clouds
2:53 AM 73.9 °F - 69.1 °F 85% 30.06 in 10.0 mi East 6.9 mph - N/A   Clear
3:53 AM 73.9 °F - 69.1 °F 85% 30.06 in 10.0 mi ENE 3.5 mph - N/A   Clear
4:53 AM 73.0 °F - 70.0 °F 90% 30.05 in 10.0 mi Calm Calm - N/A   Clear
5:53 AM 73.9 °F - 70.0 °F 87% 30.06 in 10.0 mi NE 4.6 mph - N/A   Scattered Clouds
6:53 AM 73.9 °F - 71.1 °F 91% 30.07 in 10.0 mi Calm Calm - N/A   Scattered Clouds
7:53 AM 75.0 °F - 72.0 °F 90% 30.07 in 10.0 mi East 4.6 mph - N/A   Scattered Clouds
8:53 AM 80.1 °F 83.8 °F 72.0 °F 76% 30.09 in 10.0 mi SSE 9.2 mph - N/A   Scattered Clouds
9:53 AM 81.0 °F 85.2 °F 72.0 °F 74% 30.09 in 10.0 mi SE 10.4 mph - N/A   Partly Cloudy
10:53 AM 82.0 °F 86.7 °F 72.0 °F 71% 30.08 in 10.0 mi SSE 8.1 mph - N/A   Scattered Clouds
11:53 AM 82.0 °F 86.7 °F 72.0 °F 71% 30.07 in 10.0 mi SSE 6.9 mph - N/A   Scattered Clouds
12:53 PM 82.9 °F 88.0 °F 72.0 °F 69% 30.04 in 10.0 mi SSE 8.1 mph - N/A   Scattered Clouds
1:53 PM 81.0 °F 84.9 °F 71.1 °F 72% 30.02 in 10.0 mi SSE 8.1 mph - N/A   Scattered Clouds
2:53 PM 82.0 °F 86.7 °F 72.0 °F 71% 30.01 in 10.0 mi SSE 6.9 mph - N/A   Scattered Clouds
3:53 PM 81.0 °F 84.9 °F 71.1 °F 72% 30.01 in 10.0 mi Calm Calm - N/A   Scattered Clouds
4:53 PM 81.0 °F 84.9 °F 71.1 °F 72% 30.02 in 10.0 mi Calm Calm - N/A   Mostly Cloudy
5:53 PM 79.0 °F - 73.0 °F 82% 30.03 in 10.0 mi NNW 9.2 mph - N/A   Mostly Cloudy
6:53 PM 75.9 °F - 73.0 °F 91% 30.03 in 10.0 mi North 5.8 mph - N/A   Scattered Clouds
7:53 PM 75.0 °F - 72.0 °F 90% 30.05 in 10.0 mi North 13.8 mph - N/A   Mostly Cloudy
8:53 PM 73.0 °F - 71.1 °F 93% 30.07 in 10.0 mi North 11.5 mph - N/A   Mostly Cloudy
9:18 PM 73.4 °F - 71.6 °F 94% 30.08 in 2.5 mi North 10.4 mph - N/A   Overcast
9:53 PM 72.0 °F - 71.1 °F 97% 30.07 in 3.0 mi North 10.4 mph - N/A   Overcast
10:53 PM 73.0 °F - 71.1 °F 93% 30.07 in 3.0 mi North 9.2 mph - N/A   Overcast
10:57 PM 73.4 °F - 69.8 °F 88% 30.08 in 10.0 mi North 9.2 mph - N/A   Overcast
11:53 PM 73.0 °F - 69.1 °F 87% 30.07 in 10.0 mi North 10.4 mph - N/A   Overcast